| time (UTC) | temp F | wind direction | speed MPH | gust MPH | rain 1hr in | rain 24hr in | rain mn in | humidity % | barometer mb |
| 20260505050534 | 38 | 173 | 3.0 | 0.0 | 0.00 | 0.00 | 0.00 | 85 | 994.7 |
| 20260505041528 | 38 | 182 | 4.0 | 0.0 | 0.00 | 0.00 | 0.00 | 86 | 994.4 |
| 20260505041041 | 38 | 206 | 3.0 | 0.0 | 0.00 | 0.00 | 0.00 | 87 | 994.4 |
| 20260505040529 | 37 | 183 | 2.0 | 0.0 | 0.00 | 0.00 | 0.00 | 87 | 994.4 |
| 20260505040042 | 37 | 163 | 3.0 | 0.0 | 0.00 | 0.00 | 0.00 | 88 | 994.4 |
| 20260505035532 | 37 | 158 | 3.0 | 0.0 | 0.00 | 0.00 | 0.00 | 88 | 994.4 |
| 20260505035049 | 37 | 158 | 3.0 | 0.0 | 0.00 | 0.00 | 0.00 | 88 | 994.4 |
| 20260505034534 | 37 | 179 | 3.0 | 0.0 | 0.00 | 0.00 | 0.00 | 88 | 994.4 |
| 20260505034021 | 37 | 185 | 2.0 | 0.0 | 0.00 | 0.00 | 0.00 | 88 | 994.5 |
| 20260505033527 | 37 | 187 | 2.0 | 0.0 | 0.00 | 0.00 | 0.00 | 89 | 994.5 |
| 20260505033029 | 37 | 189 | 3.0 | 0.0 | 0.00 | 0.00 | 0.00 | 89 | 994.5 |
| 20260505032534 | 37 | 179 | 3.0 | 0.0 | 0.00 | 0.00 | 0.00 | 89 | 994.5 |
| 20260505032020 | 37 | 166 | 3.0 | 0.0 | 0.00 | 0.00 | 0.00 | 89 | 994.5 |
| 20260505031537 | 37 | 168 | 3.0 | 0.0 | 0.00 | 0.00 | 0.00 | 90 | 994.5 |
| 20260505031023 | 37 | 168 | 3.0 | 0.0 | 0.00 | 0.00 | 0.00 | 90 | 994.6 |
| 20260505030558 | 37 | 162 | 3.0 | 0.0 | 0.00 | 0.00 | 0.00 | 91 | 994.6 |
| 20260505030044 | 37 | 161 | 3.0 | 0.0 | 0.00 | 0.00 | 0.00 | 91 | 994.5 |
| 20260505025530 | 37 | 187 | 2.0 | 0.0 | 0.00 | 0.00 | 0.00 | 91 | 994.5 |
| 20260505025047 | 37 | 189 | 2.0 | 0.0 | 0.00 | 0.00 | 0.00 | 91 | 994.5 |
| 20260505024554 | 37 | 189 | 2.0 | 0.0 | 0.00 | 0.00 | 0.00 | 91 | 994.6 |
| 20260505024036 | 37 | 192 | 2.0 | 0.0 | 0.00 | 0.00 | 0.00 | 91 | 994.6 |
| 20260505023527 | 37 | 192 | 2.0 | 0.0 | 0.00 | 0.00 | 0.00 | 91 | 994.6 |
| 20260505023038 | 37 | 192 | 2.0 | 0.0 | 0.00 | 0.00 | 0.00 | 91 | 994.6 |
| 20260505022525 | 37 | 192 | 2.0 | 0.0 | 0.00 | 0.00 | 0.00 | 92 | 994.6 |
| 20260505022041 | 37 | 192 | 2.0 | 0.0 | 0.00 | 0.00 | 0.00 | 92 | 994.6 |
| 20260505021528 | 37 | 190 | 2.0 | 0.0 | 0.00 | 0.00 | 0.00 | 92 | 994.6 |
| 20260505021039 | 37 | 190 | 2.0 | 0.0 | 0.00 | 0.00 | 0.00 | 92 | 994.6 |
| 20260505020527 | 37 | 199 | 3.0 | 0.0 | 0.00 | 0.00 | 0.00 | 92 | 994.6 |
| 20260505020100 | 37 | 183 | 3.0 | 0.0 | 0.00 | 0.00 | 0.00 | 93 | 994.6 |
| 20260505015526 | 37 | 185 | 3.0 | 0.0 | 0.00 | 0.00 | 0.00 | 93 | 994.5 |
| 20260505015111 | 37 | 172 | 3.0 | 0.0 | 0.00 | 0.00 | 0.00 | 93 | 994.5 |
| 20260505014525 | 37 | 169 | 3.0 | 0.0 | 0.00 | 0.00 | 0.00 | 93 | 994.5 |
| 20260505014101 | 37 | 170 | 3.0 | 0.0 | 0.00 | 0.00 | 0.00 | 93 | 994.5 |
| 20260505013547 | 37 | 168 | 2.0 | 0.0 | 0.00 | 0.00 | 0.00 | 94 | 994.5 |
| 20260505013048 | 37 | 168 | 3.0 | 0.0 | 0.00 | 0.00 | 0.00 | 94 | 994.3 |
| 20260505012530 | 37 | 168 | 3.0 | 0.0 | 0.00 | 0.00 | 0.00 | 94 | 994.3 |
| 20260505012049 | 37 | 170 | 3.0 | 0.0 | 0.00 | 0.00 | 0.00 | 94 | 994.3 |
| 20260505011549 | 37 | 172 | 2.0 | 0.0 | 0.00 | 0.00 | 0.00 | 94 | 994.5 |
| 20260505011017 | 37 | 172 | 3.0 | 0.0 | 0.00 | 0.00 | 0.00 | 94 | 994.5 |
| 20260505010531 | 37 | 186 | 3.0 | 0.0 | 0.00 | 0.00 | 0.00 | 94 | 994.5 |
| 20260505010025 | 37 | 173 | 2.0 | 0.0 | 0.00 | 0.00 | 0.00 | 94 | 994.6 |
| 20260505005557 | 37 | 176 | 2.0 | 0.0 | 0.00 | 0.00 | 0.00 | 94 | 994.6 |
| 20260505005048 | 37 | 175 | 3.0 | 0.0 | 0.00 | 0.00 | 0.00 | 94 | 994.6 |
| 20260505004527 | 37 | 186 | 3.0 | 0.0 | 0.00 | 0.00 | 0.00 | 94 | 994.5 |
| 20260505004032 | 37 | 196 | 2.0 | 0.0 | 0.00 | 0.00 | 0.00 | 94 | 994.5 |
| 20260505003527 | 37 | 176 | 2.0 | 0.0 | 0.00 | 0.00 | 0.00 | 94 | 994.5 |
| 20260505003055 | 37 | 176 | 3.0 | 0.0 | 0.00 | 0.00 | 0.00 | 94 | 994.5 |
| 20260505002547 | 37 | 178 | 3.0 | 0.0 | 0.00 | 0.00 | 0.00 | 94 | 994.4 |
| 20260505002026 | 37 | 187 | 2.0 | 0.0 | 0.00 | 0.00 | 0.00 | 94 | 994.4 |
| 20260505001602 | 37 | 180 | 2.0 | 0.0 | 0.00 | 0.00 | 0.00 | 94 | 994.4 |
| 20260505001025 | 37 | 182 | 3.0 | 0.0 | 0.00 | 0.00 | 0.00 | 94 | 994.5 |
| 20260505000542 | 37 | 178 | 2.0 | 0.0 | 0.00 | 0.00 | 0.00 | 94 | 994.5 |
| 20260505000028 | 37 | 162 | 2.0 | 0.0 | 0.00 | 0.00 | 0.00 | 94 | 994.5 |
| 20260504235530 | 37 | 182 | 3.0 | 0.0 | 0.00 | 0.00 | 0.00 | 94 | 994.5 |
| 20260504235045 | 37 | 173 | 3.0 | 0.0 | 0.00 | 0.00 | 0.00 | 94 | 994.5 |
| 20260504234550 | 37 | 180 | 2.0 | 0.0 | 0.00 | 0.00 | 0.00 | 94 | 994.5 |
| 20260504234044 | 37 | 182 | 2.0 | 0.0 | 0.00 | 0.00 | 0.00 | 93 | 994.5 |
| 20260504233523 | 37 | 183 | 2.0 | 0.0 | 0.00 | 0.00 | 0.00 | 93 | 994.5 |
| 20260504233027 | 37 | 183 | 1.0 | 0.0 | 0.00 | 0.00 | 0.00 | 93 | 994.5 |
| 20260504232541 | 37 | 183 | 1.0 | 0.0 | 0.00 | 0.00 | 0.00 | 93 | 994.5 |
| 20260504232026 | 37 | 183 | 1.0 | 0.0 | 0.00 | 0.00 | 0.00 | 93 | 994.5 |
| 20260504231526 | 38 | 183 | 2.0 | 0.0 | 0.00 | 0.00 | 0.00 | 93 | 994.9 |
| 20260504231036 | 38 | 183 | 2.0 | 0.0 | 0.00 | 0.00 | 0.00 | 93 | 994.9 |
| 20260504230552 | 38 | 186 | 2.0 | 0.0 | 0.00 | 0.00 | 0.00 | 92 | 994.9 |
| 20260504225535 | 38 | 183 | 2.0 | 0.0 | 0.00 | 0.00 | 0.00 | 92 | 995.0 |
| 20260504225021 | 38 | 193 | 2.0 | 0.0 | 0.00 | 0.00 | 0.00 | 91 | 995.0 |
| 20260504224534 | 38 | 193 | 2.0 | 0.0 | 0.00 | 0.00 | 0.00 | 90 | 994.9 |
| 20260504224042 | 38 | 193 | 1.0 | 0.0 | 0.00 | 0.00 | 0.00 | 90 | 994.9 |
| 20260504223529 | 38 | 193 | 1.0 | 0.0 | 0.00 | 0.00 | 0.00 | 90 | 994.9 |
| 20260504223028 | 38 | 193 | 1.0 | 0.0 | 0.00 | 0.00 | 0.00 | 90 | 995.1 |
| 20260504222600 | 39 | 193 | 1.0 | 0.0 | 0.00 | 0.00 | 0.00 | 90 | 995.1 |
| 20260504222025 | 39 | 193 | 1.0 | 0.0 | 0.00 | 0.00 | 0.00 | 90 | 995.1 |
| 20260504221540 | 39 | 193 | 1.0 | 0.0 | 0.00 | 0.00 | 0.00 | 90 | 995.1 |
| 20260504221045 | 39 | 193 | 1.0 | 0.0 | 0.00 | 0.00 | 0.00 | 90 | 995.1 |
| 20260504220532 | 39 | 193 | 0.0 | 0.0 | 0.00 | 0.00 | 0.00 | 90 | 995.1 |
| 20260504220049 | 40 | 193 | 1.0 | 0.0 | 0.00 | 0.00 | 0.00 | 91 | 995.2 |
| 20260504215550 | 40 | 193 | 2.0 | 0.0 | 0.00 | 0.00 | 0.00 | 91 | 995.2 |
| 20260504215036 | 40 | 199 | 2.0 | 0.0 | 0.00 | 0.00 | 0.00 | 91 | 995.2 |
| 20260504214549 | 40 | 196 | 1.0 | 0.0 | 0.00 | 0.00 | 0.02 | 91 | 995.1 |
| 20260504214025 | 40 | 196 | 1.0 | 0.0 | 0.00 | 0.00 | 0.02 | 91 | 995.1 |
| 20260504213552 | 40 | 196 | 1.0 | 0.0 | 0.00 | 0.00 | 0.02 | 91 | 995.1 |
| 20260504213024 | 40 | 202 | 1.0 | 0.0 | 0.00 | 0.00 | 0.02 | 91 | 995.0 |
| 20260504212530 | 40 | 202 | 1.0 | 0.0 | 0.00 | 0.00 | 0.02 | 91 | 995.0 |
| 20260504212020 | 40 | 202 | 1.0 | 0.0 | 0.00 | 0.00 | 0.02 | 91 | 995.0 |
| 20260504211557 | 40 | 202 | 1.0 | 0.0 | 0.00 | 0.00 | 0.02 | 92 | 995.0 |
| 20260504211027 | 40 | 200 | 1.0 | 0.0 | 0.00 | 0.00 | 0.02 | 92 | 994.8 |
| 20260504210539 | 41 | 200 | 1.0 | 0.0 | 0.00 | 0.00 | 0.02 | 92 | 994.9 |
| 20260504210034 | 41 | 203 | 1.0 | 0.0 | 0.00 | 0.00 | 0.02 | 92 | 995.0 |
| 20260504205538 | 41 | 203 | 1.0 | 0.0 | 0.00 | 0.00 | 0.02 | 92 | 995.0 |
| 20260504205026 | 41 | 202 | 1.0 | 0.0 | 0.00 | 0.00 | 0.02 | 92 | 995.0 |
| 20260504204524 | 41 | 203 | 1.0 | 0.0 | 0.00 | 0.00 | 0.02 | 92 | 994.8 |
| 20260504204027 | 41 | 204 | 1.0 | 0.0 | 0.00 | 0.00 | 0.02 | 92 | 994.8 |
| 20260504203533 | 41 | 176 | 1.0 | 0.0 | 0.00 | 0.00 | 0.02 | 92 | 994.8 |
| 20260504203029 | 41 | 173 | 1.0 | 0.0 | 0.00 | 0.00 | 0.02 | 92 | 994.5 |
| 20260504202520 | 41 | 206 | 1.0 | 0.0 | 0.00 | 0.00 | 0.02 | 92 | 994.5 |
| 20260504202030 | 41 | 206 | 1.0 | 0.0 | 0.00 | 0.00 | 0.02 | 92 | 994.5 |
| 20260504201537 | 41 | 206 | 1.0 | 0.0 | 0.00 | 0.00 | 0.02 | 92 | 994.5 |
| 20260504201034 | 41 | 209 | 1.0 | 0.0 | 0.00 | 0.00 | 0.02 | 92 | 994.6 |
| 20260504200523 | 42 | 207 | 2.0 | 0.0 | 0.00 | 0.00 | 0.02 | 91 | 994.6 |
| 20260504200109 | 42 | 182 | 3.0 | 0.0 | 0.00 | 0.00 | 0.02 | 91 | 994.6 |
| 20260504195532 | 42 | 216 | 2.0 | 0.0 | 0.00 | 0.00 | 0.02 | 91 | 994.6 |
| 20260504195038 | 42 | 206 | 2.0 | 0.0 | 0.00 | 0.00 | 0.02 | 91 | 994.6 |
| 20260504194536 | 42 | 200 | 2.0 | 0.0 | 0.00 | 0.00 | 0.02 | 91 | 994.6 |
| 20260504194044 | 42 | 197 | 2.0 | 0.0 | 0.00 | 0.00 | 0.02 | 91 | 994.6 |
| 20260504193603 | 42 | 192 | 2.0 | 0.0 | 0.00 | 0.00 | 0.02 | 91 | 994.6 |
| 20260504193031 | 42 | 194 | 2.0 | 0.0 | 0.00 | 0.00 | 0.02 | 91 | 994.6 |
| 20260504192539 | 42 | 182 | 2.0 | 0.0 | 0.00 | 0.00 | 0.02 | 91 | 994.6 |
| 20260504192029 | 42 | 193 | 3.0 | 0.0 | 0.00 | 0.00 | 0.02 | 91 | 994.6 |
| 20260504191524 | 43 | 189 | 3.0 | 0.0 | 0.00 | 0.00 | 0.02 | 90 | 994.5 |
| 20260504191032 | 43 | 175 | 3.0 | 0.0 | 0.00 | 0.00 | 0.02 | 90 | 994.5 |
| 20260504190553 | 43 | 193 | 2.0 | 0.0 | 0.00 | 0.00 | 0.02 | 90 | 994.5 |
| 20260504190023 | 43 | 193 | 1.0 | 0.0 | 0.00 | 0.00 | 0.02 | 90 | 994.5 |
| 20260504185540 | 43 | 193 | 1.0 | 0.0 | 0.00 | 0.00 | 0.02 | 89 | 994.5 |
| 20260504185030 | 43 | 193 | 1.0 | 0.0 | 0.00 | 0.00 | 0.02 | 89 | 994.5 |
| 20260504184540 | 43 | 193 | 2.0 | 0.0 | 0.00 | 0.00 | 0.02 | 88 | 994.5 |
| 20260504184028 | 44 | 193 | 1.0 | 0.0 | 0.00 | 0.00 | 0.01 | 87 | 994.5 |
| 20260504183532 | 44 | 193 | 1.0 | 0.0 | 0.00 | 0.00 | 0.01 | 87 | 994.5 |
| 20260504183035 | 44 | 194 | 1.0 | 0.0 | 0.00 | 0.00 | 0.01 | 86 | 994.5 |
| 20260504182521 | 44 | 194 | 1.0 | 0.0 | 0.00 | 0.00 | 0.01 | 84 | 994.5 |
| 20260504182059 | 45 | 194 | 1.0 | 0.0 | 0.00 | 0.00 | 0.01 | 83 | 994.5 |
| 20260504181524 | 45 | 194 | 2.0 | 0.0 | 0.00 | 0.00 | 0.01 | 81 | 994.5 |
| 20260504181027 | 45 | 194 | 2.0 | 0.0 | 0.00 | 0.00 | 0.00 | 80 | 994.5 |
| 20260504180546 | 45 | 178 | 1.0 | 0.0 | 0.00 | 0.00 | 0.00 | 77 | 994.5 |
| 20260504180029 | 45 | 178 | 2.0 | 0.0 | 0.00 | 0.00 | 0.00 | 76 | 994.5 |
| 20260504175520 | 45 | 178 | 2.0 | 0.0 | 0.00 | 0.00 | 0.00 | 76 | 994.5 |
| 20260504175101 | 45 | 192 | 2.0 | 0.0 | 0.00 | 0.00 | 0.00 | 74 | 994.5 |
| 20260504174529 | 46 | 193 | 3.0 | 0.0 | 0.00 | 0.00 | 0.00 | 72 | 994.5 |
| 20260504174021 | 46 | 190 | 2.0 | 0.0 | 0.00 | 0.00 | 0.00 | 72 | 994.5 |
| 20260504173532 | 46 | 199 | 2.0 | 0.0 | 0.00 | 0.00 | 0.00 | 72 | 994.5 |
| 20260504173030 | 46 | 200 | 2.0 | 0.0 | 0.00 | 0.00 | 0.00 | 72 | 994.6 |
| 20260504172539 | 46 | 185 | 2.0 | 0.0 | 0.00 | 0.00 | 0.00 | 72 | 994.6 |
| 20260504172028 | 46 | 192 | 3.0 | 0.0 | 0.00 | 0.00 | 0.00 | 71 | 994.6 |
| 20260504171527 | 46 | 180 | 4.0 | 0.0 | 0.00 | 0.00 | 0.00 | 71 | 994.5 |
| 20260504171036 | 46 | 190 | 3.0 | 0.0 | 0.00 | 0.00 | 0.00 | 70 | 994.5 |
| 20260504170523 | 47 | 192 | 3.0 | 0.0 | 0.00 | 0.00 | 0.00 | 70 | 994.6 |
| 20260504151029 | 54 | 193 | 4.0 | 0.0 | 0.00 | 0.00 | 0.00 | 50 | 994.5 |
| 20260504150520 | 54 | 196 | 4.0 | 0.0 | 0.00 | 0.00 | 0.00 | 49 | 994.5 |
| 20260504141033 | 55 | 178 | 4.0 | 0.0 | 0.00 | 0.00 | 0.00 | 45 | 994.6 |
| 20260504140522 | 55 | 176 | 5.0 | 0.0 | 0.00 | 0.00 | 0.00 | 45 | 994.6 |
| 20260504130536 | 59 | 183 | 2.0 | 0.0 | 0.00 | 0.00 | 0.00 | 36 | 995.0 |
| 20260504110521 | 57 | 138 | 3.0 | 0.0 | 0.00 | 0.00 | 0.00 | 36 | 996.2 |
| 20260504100540 | 54 | 138 | 3.0 | 0.0 | 0.00 | 0.00 | 0.00 | 33 | 997.6 |
| 20260504081528 | 53 | 66 | 1.0 | 0.0 | 0.00 | 0.00 | 0.00 | 35 | 998.9 |
| 20260504081045 | 52 | 63 | 1.0 | 0.0 | 0.00 | 0.00 | 0.00 | 39 | 998.9 |
| 20260504080531 | 52 | 62 | 2.0 | 0.0 | 0.00 | 0.00 | 0.00 | 39 | 998.9 |